Location: Bonnesvalyn
(49.1218°N, 3.3177°E)
Time: 08:59:17
(UTC+00:00)

Cosmos 1869 - Pass Details

Date: 09 February 2023
Orbit: 510 x 550 km, 82.5° (Epoch: 23 March)

Event Time Altitude Azimuth Distance (km) Brightness Sun altitude
Rises 17:56:40 0° 348° (NNW) 2,681 6.9 -10.3°
Reaches altitude 10° 17:58:49 10° 346° (NNW) 1,793 6.0 -10.6°
Maximum altitude 18:02:44 69° 263° (W) 582 3.7 -11.3°
Drops below altitude 10° 18:06:41 10° 180° (S) 1,804 6.1 -11.9°
Sets 18:08:51 0° 178° (S) 2,699 6.9 -12.3°
